K4AVM-13 Weather Reports


Display with metric or nautical units.
time (UTC)temp
F
wind
direction
speed
MPH
gust
MPH
rain 1hr
in
rain 24hr
in
rain mn
in
humidity
%
barometer
mb
20260906161245 82 315 1.0 10.0 0.00 0.00 0.00 55 1016.3
20260906160744 83 77 2.0 4.0 0.00 0.00 0.00 55 1016.3
20260906160244 82 316 1.0 3.0 0.00 0.00 0.00 57 1016.3
20260906155741 82 268 2.0 3.0 0.00 0.00 0.00 57 1016.4
20260906155236 83 321 2.0 6.0 0.00 0.00 0.00 58 1016.5
20260906154732 83 252 0.0 2.0 0.00 0.00 0.00 60 1016.5
20260906154227 82 345 2.0 3.0 0.00 0.00 0.00 60 1016.5
20260906153725 81 265 1.0 4.0 0.00 0.00 0.00 64 1016.5
20260906153219 82 356 0.0 1.0 0.00 0.00 0.00 67 1016.4
20260906152709 81 49 0.0 1.0 0.00 0.00 0.00 68 1016.4
20260906152203 80 285 0.0 2.0 0.00 0.00 0.00 69 1016.4
20260906151657 80 275 1.0 3.0 0.00 0.00 0.00 66 1016.4
20260906151154 80 300 3.0 4.0 0.00 0.00 0.00 67 1016.4
20260906150649 80 284 1.0 4.0 0.00 0.00 0.00 67 1016.5
20260906150144 81 304 0.0 1.0 0.00 0.00 0.00 68 1016.2
20260906145643 79 305 1.0 3.0 0.00 0.00 0.00 70 1016.3
20260906145137 80 257 1.0 3.0 0.00 0.00 0.00 68 1016.3
20260906144632 80 280 0.0 1.0 0.00 0.00 0.00 70 1016.3
20260906144127 80 262 1.0 2.0 0.00 0.00 0.00 76 1016.2
20260906143626 81 77 1.0 3.0 0.00 0.00 0.00 70 1016.2
20260906143124 80 158 1.0 2.0 0.00 0.00 0.00 72 1016.1
20260906142623 79 274 0.0 2.0 0.00 0.00 0.00 76 1016.2
20260906142118 78 257 1.0 3.0 0.00 0.00 0.00 77 1016.2
20260906141617 78 10 2.0 4.0 0.00 0.00 0.00 76 1016.3
20260906141113 78 338 4.0 6.0 0.00 0.00 0.00 78 1016.2
20260906140612 79 348 4.0 4.0 0.00 0.00 0.00 74 1016.1
20260906140107 79 10 0.0 1.0 0.00 0.00 0.00 76 1016.1
20260906135604 77 97 0.0 2.0 0.00 0.00 0.00 77 1016.2
20260906135100 77 24 0.0 3.0 0.00 0.00 0.00 79 1016.0
20260906134555 76 313 0.0 2.0 0.00 0.00 0.00 80 1015.8
20260906134054 75 291 2.0 2.0 0.00 0.00 0.00 85 1015.7
20260906133550 74 2 0.0 2.0 0.00 0.00 0.00 87 1015.8
20260906133046 73 339 3.0 3.0 0.00 0.00 0.00 88 1015.7
20260906132541 72 305 2.0 3.0 0.00 0.00 0.00 90 1015.6
20260906132036 72 330 1.0 1.0 0.00 0.00 0.00 91 1015.9
20260906131532 72 257 0.0 3.0 0.00 0.00 0.00 91 1015.9
20260906131027 72 314 0.0 2.0 0.00 0.00 0.00 92 1015.9
20260906130526 72 318 1.0 2.0 0.00 0.00 0.00 91 1016.0
20260906130022 72 279 2.0 3.0 0.00 0.00 0.00 91 1016.0
20260906125519 72 322 0.0 2.0 0.00 0.00 0.00 91 1015.9
20260906125013 72 287 0.0 2.0 0.00 0.00 0.00 91 1016.0
20260906124509 72 268 0.0 2.0 0.00 0.00 0.00 91 1016.0
20260906124003 72 274 2.0 3.0 0.00 0.00 0.00 90 1016.1
20260906123456 72 299 0.0 2.0 0.00 0.00 0.00 90 1016.1
20260906122951 73 300 0.0 4.0 0.00 0.00 0.00 89 1015.9
20260906122446 73 330 0.0 2.0 0.00 0.00 0.00 89 1015.9
20260906121942 73 314 0.0 2.0 0.00 0.00 0.00 88 1015.6
20260906121438 74 302 0.0 2.0 0.00 0.00 0.00 88 1015.6
20260906120935 72 337 0.0 1.0 0.00 0.00 0.00 90 1015.4
20260906120430 72 254 0.0 2.0 0.00 0.00 0.00 91 1015.4
20260906115925 71 35 2.0 3.0 0.00 0.00 0.00 92 1015.5
20260906115421 70 8 1.0 2.0 0.00 0.00 0.00 94 1015.2
20260906114915 70 328 1.0 1.0 0.00 0.00 0.00 95 1015.3
20260906114410 70 327 0.0 1.0 0.00 0.00 0.00 95 1015.2
20260906113906 70 279 0.0 1.0 0.00 0.00 0.00 95 1015.2
20260906113404 70 339 2.0 2.0 0.00 0.00 0.00 96 1015.0
20260906112900 70 281 1.0 1.0 0.00 0.00 0.00 96 1014.9
20260906112355 70 305 0.0 1.0 0.00 0.00 0.00 96 1014.9
20260906111850 70 38 0.0 1.0 0.00 0.00 0.00 97 1014.9
20260906111349 70 337 0.0 0.0 0.00 0.00 0.00 97 1015.1
20260906110844 70 0 1.0 1.0 0.00 0.00 0.00 97 1014.8
20260906110340 70 285 0.0 0.0 0.00 0.00 0.00 98 1014.7
20260906105839 70 266 0.0 0.0 0.00 0.00 0.00 98 1014.7
20260906105335 70 274 0.0 0.0 0.00 0.00 0.00 98 1014.7
20260906104831 70 269 0.0 0.0 0.00 0.00 0.00 98 1014.6
20260906104329 70 297 1.0 1.0 0.00 0.00 0.00 98 1014.7
20260906103828 70 288 0.0 0.0 0.00 0.00 0.00 98 1014.4
20260906103326 70 278 0.0 0.0 0.00 0.00 0.00 98 1014.4
20260906102823 70 280 0.0 0.0 0.00 0.00 0.00 98 1014.3
20260906102321 70 265 0.0 0.0 0.00 0.00 0.00 98 1014.2
20260906101817 70 335 1.0 3.0 0.00 0.00 0.00 99 1014.2
20260906101312 70 326 0.0 1.0 0.00 0.00 0.00 99 1013.9
20260906100808 70 279 0.0 0.0 0.00 0.00 0.00 99 1013.9
20260906100306 70 284 0.0 0.0 0.00 0.00 0.00 99 1014.2
20260906095802 70 314 0.0 2.0 0.00 0.00 0.00 99 1013.8
20260906095257 70 279 0.0 0.0 0.00 0.00 0.00 99 1013.8
20260906094756 70 301 0.0 0.0 0.00 0.00 0.00 99 1014.0
20260906094251 70 277 0.0 0.0 0.00 0.00 0.00 99 1013.8
20260906093748 70 277 0.0 0.0 0.00 0.00 0.00 99 1013.9
20260906093243 70 276 0.0 0.0 0.00 0.00 0.00 99 1013.8
20260906092738 70 326 0.0 0.0 0.00 0.00 0.00 99 1013.8
20260906092238 71 284 0.0 0.0 0.00 0.00 0.00 99 1013.7
20260906091733 71 310 0.0 0.0 0.00 0.00 0.00 99 1013.8
20260906091230 71 301 0.0 0.0 0.00 0.00 0.00 99 1013.7
20260906090726 71 286 0.0 0.0 0.00 0.00 0.00 99 1013.7
20260906090225 71 281 0.0 0.0 0.00 0.00 0.00 99 1013.7
20260906085724 71 289 0.0 0.0 0.00 0.00 0.00 99 1013.6
20260906085223 71 273 0.0 0.0 0.00 0.00 0.00 99 1013.5
20260906084718 71 273 0.0 0.0 0.00 0.00 0.00 99 1013.3
20260906084212 71 273 0.0 0.0 0.00 0.00 0.00 99 1013.4
20260906083708 71 265 0.0 0.0 0.00 0.00 0.00 99 1013.4
20260906083158 71 274 0.0 0.0 0.00 0.00 0.00 99 1013.6
20260906082652 71 321 0.0 0.0 0.00 0.00 0.00 99 1013.5
20260906082148 71 300 0.0 0.0 0.00 0.00 0.00 99 1013.4
20260906081643 71 288 0.0 0.0 0.00 0.00 0.00 99 1013.3
20260906081138 71 339 1.0 2.0 0.00 0.00 0.00 99 1013.3
20260906080635 71 280 0.0 0.0 0.00 0.00 0.00 99 1013.4
20260906080131 71 288 0.0 1.0 0.00 0.00 0.00 99 1013.4
20260906075630 71 315 0.0 0.0 0.00 0.00 0.00 99 1013.4
20260906075125 71 331 1.0 2.0 0.00 0.00 0.00 99 1013.3
20260906074621 71 277 0.0 0.0 0.00 0.00 0.00 99 1013.3
20260906074119 71 281 0.0 0.0 0.00 0.00 0.00 99 1013.2
20260906073614 71 285 0.0 0.0 0.00 0.00 0.00 99 1013.0
20260906073110 71 264 0.0 0.0 0.00 0.00 0.00 99 1013.2
20260906072605 71 264 0.0 0.0 0.00 0.00 0.00 99 1013.2
20260906072101 71 265 0.0 0.0 0.00 0.00 0.00 99 1013.0
20260906071557 71 274 0.0 0.0 0.00 0.00 0.00 99 1012.9
20260906071051 71 290 0.0 0.0 0.00 0.00 0.00 99 1012.9
20260906070548 71 272 0.0 0.0 0.00 0.00 0.00 99 1013.0
20260906070043 71 310 0.0 0.0 0.00 0.00 0.00 99 1013.2
20260906065542 72 276 0.0 0.0 0.00 0.00 0.00 99 1012.8
20260906065039 72 278 0.0 0.0 0.00 0.00 0.00 99 1012.9
20260906064534 72 257 0.0 1.0 0.00 0.00 0.00 99 1013.0
20260906064029 72 280 0.0 0.0 0.00 0.00 0.00 99 1013.0
20260906063524 72 269 0.0 0.0 0.00 0.00 0.00 99 1013.0
20260906063020 71 287 0.0 1.0 0.00 0.00 0.00 99 1013.1
20260906062509 71 276 0.0 0.0 0.00 0.00 0.00 99 1013.2
20260906062004 71 277 0.0 0.0 0.00 0.00 0.00 99 1012.9
20260906061500 71 283 0.0 0.0 0.00 0.00 0.00 99 1013.2
20260906060954 71 291 0.0 0.0 0.00 0.00 0.00 99 1013.1
20260906060451 71 277 0.0 1.0 0.00 0.00 0.00 99 1013.2
20260906055947 71 286 0.0 0.0 0.00 0.00 0.00 99 1013.2
20260906055443 71 289 0.0 0.0 0.00 0.00 0.00 99 1013.2
20260906054938 71 281 0.0 0.0 0.00 0.00 0.00 99 1013.5
20260906054433 72 279 0.0 0.0 0.00 0.00 0.00 99 1013.4
20260906053928 72 294 0.0 0.0 0.00 0.00 0.00 99 1013.3
20260906053424 72 296 0.0 0.0 0.00 0.00 0.00 99 1013.4
20260906052920 72 274 0.0 0.0 0.00 0.00 0.00 99 1013.3
20260906052416 72 267 0.0 0.0 0.00 0.00 0.00 99 1013.5
20260906051913 72 276 0.0 0.0 0.00 0.00 0.00 99 1013.5
20260906051413 72 303 0.0 0.0 0.00 0.00 0.00 99 1013.4
20260906050908 72 344 0.0 1.0 0.00 0.00 0.00 99 1013.4
20260906050403 72 340 0.0 0.0 0.00 0.00 0.00 99 1013.5
20260906045902 72 10 0.0 1.0 0.00 0.00 0.00 99 1013.6
20260906045401 71 294 0.0 2.0 0.00 0.00 0.00 99 1013.6
20260906044857 71 288 0.0 0.0 0.00 0.00 0.00 99 1013.6
20260906044351 71 283 0.0 0.0 0.00 0.00 0.00 99 1013.7
20260906043847 71 277 0.0 0.0 0.00 0.00 0.00 99 1013.7
20260906043343 71 283 0.0 2.0 0.00 0.00 0.00 99 1013.6
20260906042838 71 278 0.0 0.0 0.00 0.00 0.00 99 1013.8
20260906042337 71 278 0.0 0.0 0.00 0.00 0.00 99 1013.8
20260906041832 71 269 0.0 0.0 0.00 0.00 0.00 99 1013.8
20260906041329 71 279 0.0 0.0 0.00 0.00 0.00 99 1013.5
20260906040828 71 276 0.0 0.0 0.00 0.00 0.00 99 1013.3
20260906040323 71 276 0.0 0.0 0.00 0.00 0.00 99 1013.6
20260906035819 71 267 0.0 0.0 0.00 0.42 0.42 99 1013.7
20260906035314 71 266 0.0 0.0 0.00 0.42 0.42 99 1013.8
20260906034809 71 267 0.0 0.0 0.00 0.42 0.42 99 1013.7
20260906034309 71 264 0.0 0.0 0.00 0.42 0.42 99 1013.7
20260906033805 71 264 0.0 0.0 0.00 0.42 0.42 99 1013.9
20260906033304 71 274 0.0 0.0 0.00 0.42 0.42 99 1013.7
20260906032801 71 272 0.0 0.0 0.00 0.42 0.42 99 1013.8
20260906032256 71 270 0.0 0.0 0.00 0.42 0.42 99 1013.9
20260906031751 71 279 0.0 0.0 0.00 0.42 0.42 99 1013.8
20260906031247 71 286 0.0 0.0 0.00 0.42 0.42 99 1013.8
20260906030746 71 275 0.0 0.0 0.00 0.42 0.42 99 1013.7
20260906030242 71 258 0.0 0.0 0.00 0.42 0.42 99 1013.9
20260906025741 72 259 0.0 0.0 0.00 0.42 0.42 99 1013.9
20260906025235 71 264 0.0 0.0 0.00 0.42 0.42 99 1013.9
20260906024734 72 264 0.0 0.0 0.00 0.42 0.42 99 1013.7
20260906024234 72 274 0.0 0.0 0.00 0.42 0.42 99 1013.7
20260906023730 72 272 0.0 0.0 0.00 0.42 0.42 99 1013.7
20260906023225 72 271 0.0 0.0 0.00 0.42 0.42 99 1013.7
20260906022721 72 277 0.0 0.0 0.00 0.42 0.42 99 1013.6
20260906022216 72 279 0.0 0.0 0.00 0.42 0.42 99 1013.7
20260906021712 72 275 0.0 0.0 0.00 0.42 0.42 99 1013.8
20260906021210 72 275 0.0 0.0 0.00 0.42 0.42 99 1013.6
20260906020705 73 275 0.0 0.0 0.00 0.42 0.42 99 1013.8
20260906020159 73 276 0.0 0.0 0.00 0.42 0.42 99 1013.8
20260906015654 73 276 0.0 0.0 0.00 0.42 0.42 98 1013.7
20260906015152 73 276 0.0 0.0 0.00 0.42 0.42 98 1013.6
20260906014647 73 277 0.0 0.0 0.00 0.42 0.42 98 1013.4
20260906014143 73 276 0.0 0.0 0.00 0.42 0.42 98 1013.5
20260906013638 74 276 0.0 0.0 0.00 0.42 0.42 98 1013.4
20260906013134 74 276 0.0 0.0 0.00 0.42 0.42 98 1013.3
20260906012628 74 276 0.0 0.0 0.00 0.42 0.42 98 1013.4
20260906012123 74 277 0.0 0.0 0.00 0.42 0.42 97 1013.1
20260906011618 74 277 0.0 0.0 0.00 0.42 0.42 97 1013.4
20260906011113 74 277 0.0 0.0 0.00 0.42 0.42 97 1013.3
20260906010608 74 296 0.0 0.0 0.00 0.42 0.42 97 1013.2
20260906010104 74 260 0.0 0.0 0.00 0.42 0.42 96 1013.1
20260906005603 74 262 0.0 0.0 0.00 0.42 0.42 96 1013.0
20260906005102 74 262 0.0 0.0 0.00 0.42 0.42 96 1012.9
20260906004556 74 260 0.0 0.0 0.00 0.42 0.42 96 1012.8
20260906004052 74 259 0.0 0.0 0.00 0.42 0.42 96 1012.7
20260906003547 74 272 0.0 0.0 0.00 0.42 0.42 96 1012.8
20260906003043 75 272 0.0 0.0 0.00 0.42 0.42 96 1012.7
20260906002543 75 256 0.0 0.0 0.00 0.42 0.42 96 1012.4
20260906002037 75 270 0.0 0.0 0.00 0.42 0.42 96 1012.5
20260906001533 75 280 0.0 0.0 0.00 0.42 0.42 95 1012.7
20260906001027 75 277 0.0 0.0 0.00 0.42 0.42 95 1012.4
20260906000524 75 271 0.0 0.0 0.00 0.42 0.42 94 1012.4
20260906000018 75 270 0.0 0.0 0.00 0.42 0.42 94 1012.2
20260905235512 75 259 0.0 0.0 0.00 0.42 0.42 93 1012.0
20260905235007 75 258 0.0 0.0 0.00 0.42 0.42 94 1012.1
20260905234502 75 262 0.0 0.0 0.00 0.42 0.42 92 1012.1
20260905233956 75 265 0.0 0.0 0.00 0.42 0.42 92 1012.0
20260905233452 76 277 0.0 0.0 0.00 0.42 0.42 91 1012.0
20260905232950 76 296 0.0 0.0 0.00 0.42 0.42 91 1011.9
20260905232447 76 273 0.0 0.0 0.00 0.42 0.42 91 1011.8
20260905231943 76 343 0.0 0.0 0.00 0.42 0.42 90 1012.0
20260905231438 76 302 0.0 0.0 0.00 0.42 0.42 90 1012.1
20260905230934 77 273 0.0 0.0 0.00 0.42 0.42 90 1012.2
20260905230433 77 309 0.0 0.0 0.00 0.42 0.42 89 1012.1
20260905225931 77 262 0.0 0.0 0.00 0.42 0.42 88 1012.4
20260905225427 77 274 0.0 1.0 0.00 0.42 0.42 88 1012.3
20260905224921 78 5 0.0 1.0 0.00 0.42 0.42 87 1012.3
20260905224418 78 290 1.0 2.0 0.00 0.42 0.42 87 1012.4
20260905223917 78 288 0.0 0.0 0.00 0.42 0.42 88 1012.2
20260905223415 78 312 1.0 2.0 0.00 0.42 0.42 88 1012.1
20260905222915 78 308 0.0 1.0 0.00 0.42 0.42 89 1012.4
20260905222414 78 254 0.0 0.0 0.00 0.42 0.42 89 1012.3
20260905221910 78 273 0.0 0.0 0.00 0.42 0.42 88 1012.0
20260905221406 78 296 0.0 0.0 0.00 0.42 0.42 88 1012.1
20260905220856 78 290 0.0 1.0 0.00 0.42 0.42 87 1012.2
20260905220352 79 256 0.0 0.0 0.00 0.42 0.42 87 1012.1
20260905215852 79 273 0.0 1.0 0.00 0.42 0.42 86 1011.9
20260905215348 80 263 0.0 0.0 0.00 0.42 0.42 84 1011.8
20260905214844 80 263 0.0 0.0 0.00 0.42 0.42 84 1011.9
20260905214339 80 260 0.0 0.0 0.00 0.42 0.42 85 1012.2
20260905213833 79 271 0.0 1.0 0.00 0.42 0.42 87 1012.2
20260905213330 78 286 0.0 0.0 0.00 0.42 0.42 88 1012.1
20260905212825 78 308 0.0 0.0 0.00 0.42 0.42 89 1012.2
20260905212324 77 321 1.0 1.0 0.00 0.42 0.42 89 1012.1
20260905211819 78 108 0.0 2.0 0.00 0.42 0.42 88 1012.1
20260905211314 77 220 0.0 1.0 0.00 0.42 0.42 89 1012.2
20260905210811 76 317 1.0 3.0 0.00 0.42 0.42 96 1012.5
20260905210310 75 298 0.0 1.0 0.00 0.42 0.42 99 1012.3
20260905205809 75 247 0.0 1.0 0.00 0.42 0.42 99 1012.3
20260905205306 75 253 0.0 0.0 0.00 0.42 0.42 99 1012.5
20260905204803 74 276 1.0 1.0 0.00 0.42 0.42 99 1012.4
20260905204300 74 288 0.0 1.0 0.00 0.42 0.42 99 1012.3
20260905203758 74 278 0.0 0.0 0.00 0.42 0.42 99 1012.5
20260905203254 73 258 0.0 0.0 0.00 0.42 0.42 99 1012.3
20260905202750 73 251 0.0 0.0 0.00 0.42 0.42 99 1012.2
20260905202244 73 249 0.0 1.0 0.00 0.42 0.42 99 1012.0
20260905201740 74 230 0.0 1.0 0.00 0.42 0.42 99 1012.2
20260905201235 73 228 0.0 1.0 0.00 0.42 0.42 99 1012.0
20260905200730 74 237 0.0 0.0 0.00 0.42 0.42 99 1011.8
20260905200226 73 250 0.0 0.0 0.00 0.42 0.42 99 1012.2
20260905195218 73 284 0.0 0.0 0.00 0.42 0.42 99 1012.3
20260905194714 73 286 0.0 0.0 0.00 0.42 0.42 99 1012.4
20260905194214 74 255 0.0 0.0 0.00 0.42 0.42 99 1012.7
20260905193708 74 260 0.0 0.0 0.00 0.42 0.42 99 1012.7
20260905193203 73 272 0.0 0.0 0.00 0.42 0.42 99 1012.7
20260905192659 73 256 0.0 2.0 0.05 0.42 0.42 99 1012.6
20260905192155 73 279 0.0 1.0 0.05 0.42 0.42 99 1012.7
20260905191654 74 263 0.0 1.0 0.00 0.41 0.41 99 1012.7
20260905191152 74 269 0.0 0.0 0.00 0.41 0.41 99 1013.0
20260905190651 73 264 0.0 1.0 0.00 0.41 0.41 99 1013.1
20260905190149 73 243 1.0 1.0 0.07 0.41 0.41 99 1013.2
20260905185649 74 264 0.0 0.0 0.07 0.41 0.41 99 1013.1
20260905185143 74 264 0.0 0.0 0.00 0.40 0.40 99 1012.9
20260905184638 74 259 0.0 0.0 0.00 0.40 0.40 99 1012.9
20260905184137 73 263 0.0 0.0 0.00 0.40 0.40 99 1012.9
20260905183636 73 263 0.0 0.0 0.00 0.40 0.40 99 1013.1
20260905183132 73 250 0.0 0.0 0.00 0.40 0.40 99 1012.8
20260905182631 73 235 0.0 1.0 0.00 0.40 0.40 99 1012.5
20260905182131 74 168 1.0 1.0 0.00 0.40 0.40 99 1012.6
20260905181626 74 260 0.0 1.0 0.00 0.40 0.40 99 1012.8
20260905181125 74 226 0.0 2.0 0.00 0.40 0.40 99 1012.9
20260905180620 73 223 0.0 1.0 0.00 0.40 0.40 99 1013.1
20260905180115 73 235 0.0 2.0 0.00 0.40 0.40 99 1013.1
20260905175614 74 237 0.0 1.0 0.00 0.40 0.40 99 1013.3
20260905175109 73 297 1.0 1.0 0.00 0.40 0.40 99 1013.7
20260905174605 74 301 1.0 2.0 0.00 0.40 0.40 99 1013.7
20260905174101 73 185 0.0 3.0 0.00 0.40 0.40 99 1013.6
20260905173557 73 270 0.0 3.0 0.00 0.40 0.40 99 1013.3
20260905173052 73 256 0.0 1.0 0.00 0.40 0.40 99 1013.6
20260905172551 73 284 0.0 1.0 0.00 0.40 0.40 99 1013.7
20260905172047 73 206 1.0 2.0 0.05 0.40 0.40 99 1013.6
20260905171543 73 224 0.0 0.0 0.12 0.40 0.40 99 1013.9
20260905171038 73 265 3.0 6.0 0.31 0.39 0.39 99 1014.2
20260905170535 74 204 1.0 2.0 0.47 0.38 0.38 99 1014.6
20260905170030 74 9 2.0 3.0 0.66 0.33 0.33 99 1015.0
20260905165524 75 250 1.0 2.0 1.18 0.29 0.29 99 1014.7
20260905165020 76 260 0.0 3.0 1.09 0.22 0.22 98 1014.8
20260905164514 77 256 0.0 0.0 0.50 0.09 0.09 97 1014.5
20260905164009 78 247 0.0 1.0 0.24 0.04 0.04 93 1014.1
20260905163505 79 239 0.0 0.0 0.05 0.01 0.01 88 1014.0
20260905163000 80 249 1.0 3.0 0.00 0.00 0.00 85 1014.3
20260905162456 81 327 0.0 0.0 0.00 0.00 0.00 84 1013.9
20260905161951 81 294 1.0 1.0 0.00 0.00 0.00 82 1013.7